This is the latest recevied weather packets stored in our database for station/object VE4GLS. If no packets are shown the sender has not sent any weather packets the latest 10 day(s).
| Time | Temp. | Humidity | Pressure | Rain* | Wind** | Luminosity | Snow |
|---|---|---|---|---|---|---|---|
| 1787775680 | 23.89° C | 52% | 1018.7 hPa | 0 mm | - | - | - |
| 1787775419 | 24.44° C | 54% | 1018.7 hPa | 0 mm | - | - | - |
| 1787774819 | 24.44° C | 53% | 1018.8 hPa | 0 mm | - | - | - |
| 1787774779 | 24.44° C | 53% | 1018.8 hPa | 0 mm | - | - | - |
| 1787774221 | 24.44° C | 55% | 1018.8 hPa | 0 mm | - | - | - |
| 1787773879 | 24.44° C | 57% | 1018.8 hPa | 0 mm | - | - | - |
| 1787773620 | 24.44° C | 55% | 1018.9 hPa | 0 mm | - | - | - |
| 1787773019 | 24.44° C | 53% | 1018.8 hPa | 0 mm | - | - | - |
| 1787772979 | 24.44° C | 53% | 1018.8 hPa | 0 mm | - | - | - |
| 1787772419 | 25° C | 54% | 1018.8 hPa | 0 mm | - | - | - |
| 1787772078 | 25° C | 55% | 1018.8 hPa | 0 mm | - | - | - |
| 1787771820 | 25° C | 52% | 1018.8 hPa | 0 mm | - | - | - |
| 1787771220 | 24.44° C | 54% | 1018.8 hPa | 0 mm | - | - | - |
| 1787771180 | 24.44° C | 54% | 1018.8 hPa | 0 mm | - | - | - |
| 1787770626 | 24.44° C | 55% | 1018.7 hPa | 0 mm | - | - | - |
| 1787770278 | 23.89° C | 61% | 1018.7 hPa | 0 mm | - | - | - |
| 1787770020 | 23.33° C | 59% | 1018.8 hPa | 0 mm | - | - | - |
| 1787769420 | 23.89° C | 58% | 1018.8 hPa | 0 mm | - | - | - |
| 1787769380 | 23.89° C | 58% | 1018.8 hPa | 0 mm | - | - | - |
| 1787768820 | 23.89° C | 59% | 1018.7 hPa | 0 mm | - | - | - |
| 1787768479 | 24.44° C | 60% | 1018.7 hPa | 0 mm | - | - | - |
| 1787768219 | 24.44° C | 59% | 1018.7 hPa | 0 mm | - | - | - |
| 1787767620 | 24.44° C | 57% | 1018.7 hPa | 0 mm | - | - | - |
| 1787767578 | 24.44° C | 57% | 1018.7 hPa | 0 mm | - | - | - |
| 1787767021 | 23.89° C | 57% | 1018.7 hPa | 0 mm | - | - | - |
* Rain latest hour (hover to see other rain measurements)
** Current wind speed in m/s (hover to see current wind gust speed)